TimePDT,TemperatureF,Dew PointF,Humidity,Sea Level PressureIn,VisibilityMPH,Wind Direction,Wind SpeedMPH,Gust SpeedMPH,PrecipitationIn,Events,Conditions,WindDirDegrees,DateUTC
12:56 AM,59.0,54.0,83,29.88,10.0,NNE,3.5,-,N/A,,Clear,30,2012-09-11 07:56:00
1:56 AM,59.0,54.0,83,29.88,10.0,North,3.5,-,N/A,,Clear,10,2012-09-11 08:56:00
2:56 AM,59.0,55.0,87,29.87,10.0,Calm,Calm,-,N/A,,Clear,0,2012-09-11 09:56:00
3:56 AM,57.0,54.0,89,29.87,10.0,Calm,Calm,-,N/A,,Clear,0,2012-09-11 10:56:00
4:56 AM,57.0,53.1,87,29.88,10.0,Calm,Calm,-,N/A,,Clear,0,2012-09-11 11:56:00
5:56 AM,57.0,51.1,81,29.89,10.0,Calm,Calm,-,N/A,,Clear,0,2012-09-11 12:56:00
6:56 AM,55.0,51.1,86,29.91,10.0,SE,3.5,-,N/A,,Clear,140,2012-09-11 13:56:00
7:56 AM,57.0,51.1,81,29.93,10.0,ESE,3.5,-,N/A,,Clear,120,2012-09-11 14:56:00
8:56 AM,60.1,51.1,72,29.94,10.0,Variable,3.5,-,N/A,,Clear,0,2012-09-11 15:56:00
9:56 AM,64.0,52.0,65,29.94,10.0,Calm,Calm,-,N/A,,Clear,0,2012-09-11 16:56:00
10:56 AM,66.9,52.0,59,29.94,10.0,North,6.9,-,N/A,,Clear,360,2012-09-11 17:56:00
11:56 AM,69.1,52.0,54,29.94,10.0,NNW,3.5,-,N/A,,Clear,330,2012-09-11 18:56:00
12:56 PM,73.0,53.1,49,29.92,10.0,NNW,4.6,-,N/A,,Clear,340,2012-09-11 19:56:00
1:56 PM,77.0,52.0,42,29.91,10.0,North,9.2,17.3,N/A,,Clear,350,2012-09-11 20:56:00
2:56 PM,75.0,55.0,50,29.90,10.0,NNW,10.4,-,N/A,,Clear,330,2012-09-11 21:56:00
3:56 PM,75.0,55.9,51,29.90,10.0,NNW,12.7,-,N/A,,Clear,340,2012-09-11 22:56:00
4:56 PM,73.0,55.0,53,29.90,10.0,NW,11.5,-,N/A,,Clear,320,2012-09-11 23:56:00
5:56 PM,70.0,57.0,63,29.90,10.0,NNW,10.4,-,N/A,,Clear,330,2012-09-12 00:56:00
6:56 PM,66.9,57.0,70,29.91,10.0,NW,10.4,-,N/A,,Clear,320,2012-09-12 01:56:00
7:56 PM,64.0,57.9,80,29.93,10.0,NW,6.9,-,N/A,,Clear,310,2012-09-12 02:56:00
8:56 PM,63.0,57.0,81,29.96,10.0,NW,4.6,-,N/A,,Clear,310,2012-09-12 03:56:00
9:56 PM,62.1,57.0,84,29.98,10.0,NW,4.6,-,N/A,,Clear,320,2012-09-12 04:56:00
10:56 PM,61.0,55.9,83,29.99,10.0,Calm,Calm,-,N/A,,Clear,0,2012-09-12 05:56:00
11:56 PM,61.0,55.9,83,29.98,10.0,Calm,Calm,-,N/A,,Clear,0,2012-09-12 06:56:00